• In Hungary
  • List of Countries
  • For 7 days
  • Water Temperature
  • Satellite Maps
  • Weather Map
  • News
  • Weather Widgets
  • user-avatar
    Login

    Hourly Weather Cheremushka

    Today, 18 February, Sunday

    Time Temperature Precipitation Wind Pressure Humidity
    00:00 -21°C° 0 mm 2 mps 728 mmHg 95%
    01:00 -19°C° 0 mm 1 mps 727 mmHg 95%
    02:00 -19°C° 0 mm 1 mps 728 mmHg 95%
    03:00 -19°C° 0 mm 1 mps 728 mmHg 95%
    04:00 -19°C° 0 mm 1 mps 728 mmHg 95%
    05:00 -19°C° 0 mm 1 mps 728 mmHg 95%
    06:00 -19°C° 0 mm 1 mps 728 mmHg 95%
    07:00 -20°C° 0 mm 1 mps 728 mmHg 96%
    08:00 -20°C° 0 mm 2 mps 728 mmHg 92%
    09:00 -18°C° 0 mm 2 mps 728 mmHg 89%
    10:00 -16°C° 0 mm 2 mps 728 mmHg 85%
    11:00 -16°C° 0 mm 3 mps 728 mmHg 83%
    12:00 -15°C° 0 mm 3 mps 727 mmHg 81%
    13:00 -15°C° 0 mm 3 mps 727 mmHg 79%
    14:00 -15°C° 0 mm 3 mps 727 mmHg 80%
    15:00 -15°C° 0 mm 3 mps 726 mmHg 81%
    16:00 -15°C° 0 mm 3 mps 726 mmHg 82%
    17:00 -16°C° 0 mm 2 mps 726 mmHg 86%
    18:00 -17°C° 0 mm 2 mps 726 mmHg 89%
    19:00 -19°C° 0 mm 2 mps 727 mmHg 92%
    20:00 -19°C° 0 mm 2 mps 727 mmHg 93%
    21:00 -20°C° 0 mm 2 mps 727 mmHg 93%
    22:00 -20°C° 0 mm 2 mps 727 mmHg 94%
    23:00 -18°C° 0 mm 1 mps 727 mmHg 94%

    Tomorrow, 19 February, Monday

    Time Temperature Precipitation Wind Pressure Humidity
    00:00 -19°C° 0 mm 1 mps 727 mmHg 95%
    01:00 -19°C° 0 mm 1 mps 727 mmHg 95%
    02:00 -19°C° 0 mm 1 mps 727 mmHg 95%
    03:00 -20°C° 0 mm 1 mps 727 mmHg 95%
    04:00 -20°C° 0 mm 1 mps 726 mmHg 96%
    05:00 -20°C° 0 mm 1 mps 726 mmHg 96%
    06:00 -20°C° 0 mm 1 mps 727 mmHg 96%
    07:00 -20°C° 0 mm 1 mps 727 mmHg 96%
    08:00 -20°C° 0 mm 2 mps 727 mmHg 93%
    09:00 -18°C° 0 mm 2 mps 727 mmHg 90%
    10:00 -16°C° 0 mm 2 mps 727 mmHg 87%
    11:00 -15°C° 0 mm 2 mps 727 mmHg 85%
    12:00 -14°C° 0 mm 3 mps 726 mmHg 83%
    13:00 -13°C° 0 mm 3 mps 726 mmHg 80%
    14:00 -13°C° 0.1 mm 3 mps 726 mmHg 81%
    15:00 -13°C° 0.1 mm 3 mps 725 mmHg 82%
    16:00 -13°C° 0.1 mm 3 mps 725 mmHg 82%
    17:00 -15°C° 0 mm 3 mps 725 mmHg 86%
    18:00 -16°C° 0 mm 2 mps 726 mmHg 89%
    19:00 -17°C° 0 mm 2 mps 726 mmHg 92%
    20:00 -18°C° 0 mm 2 mps 726 mmHg 93%
    21:00 -16°C° 0 mm 1 mps 726 mmHg 93%
    22:00 -17°C° 0 mm 1 mps 726 mmHg 94%
    23:00 -17°C° 0 mm 1 mps 726 mmHg 94%

    Day after tomorrow, 20 February, Tuesday

    Time Temperature Precipitation Wind Pressure Humidity
    00:00 -17°C° 0 mm 1 mps 726 mmHg 95%
    01:00 -17°C° 0 mm 1 mps 726 mmHg 95%
    02:00 -17°C° 0 mm 1 mps 726 mmHg 95%
    03:00 -20°C° 0 mm 2 mps 725 mmHg 95%
    04:00 -20°C° 0 mm 2 mps 725 mmHg 95%
    05:00 -20°C° 0 mm 2 mps 725 mmHg 95%
    06:00 -20°C° 0 mm 2 mps 725 mmHg 95%
    07:00 -21°C° 0 mm 2 mps 726 mmHg 95%
    08:00 -19°C° 0 mm 2 mps 725 mmHg 93%
    09:00 -17°C° 0 mm 2 mps 725 mmHg 90%
    10:00 -15°C° 0 mm 2 mps 725 mmHg 88%
    11:00 -14°C° 0 mm 3 mps 725 mmHg 85%
    12:00 -13°C° 0 mm 3 mps 724 mmHg 83%
    13:00 -12°C° 0 mm 4 mps 724 mmHg 80%
    14:00 -12°C° 0.1 mm 4 mps 723 mmHg 81%
    15:00 -12°C° 0.1 mm 4 mps 723 mmHg 82%
    16:00 -12°C° 0.1 mm 4 mps 723 mmHg 83%
    17:00 -14°C° 0.1 mm 4 mps 723 mmHg 85%
    18:00 -14°C° 0.1 mm 3 mps 723 mmHg 88%
    19:00 -15°C° 0.1 mm 3 mps 723 mmHg 90%
    20:00 -15°C° 0 mm 3 mps 723 mmHg 91%
    21:00 -15°C° 0 mm 2 mps 722 mmHg 92%
    22:00 -16°C° 0 mm 2 mps 722 mmHg 93%
    23:00 -16°C° 0.1 mm 2 mps 722 mmHg 93%

    21 February, Wednesday

    Time Temperature Precipitation Wind Pressure Humidity
    00:00 -16°C° 0.1 mm 2 mps 721 mmHg 93%
    01:00 -16°C° 0.1 mm 2 mps 721 mmHg 93%
    02:00 -16°C° 0.1 mm 2 mps 720 mmHg 93%
    03:00 -16°C° 0.1 mm 2 mps 720 mmHg 93%
    04:00 -16°C° 0.1 mm 2 mps 719 mmHg 93%
    05:00 -17°C° 0.1 mm 3 mps 719 mmHg 93%
    06:00 -17°C° 0.1 mm 3 mps 720 mmHg 93%
    07:00 -17°C° 0.1 mm 3 mps 720 mmHg 93%
    08:00 -15°C° 0.1 mm 3 mps 720 mmHg 91%
    09:00 -15°C° 0.1 mm 4 mps 720 mmHg 88%
    10:00 -14°C° 0.1 mm 4 mps 720 mmHg 85%
    11:00 -12°C° 0.1 mm 4 mps 719 mmHg 83%
    12:00 -11°C° 0.1 mm 4 mps 719 mmHg 81%
    13:00 -12°C° 0.1 mm 5 mps 719 mmHg 79%
    14:00 -11°C° 0.1 mm 4 mps 718 mmHg 80%
    15:00 -11°C° 0.1 mm 4 mps 718 mmHg 81%
    16:00 -10°C° 0.1 mm 3 mps 718 mmHg 82%
    17:00 -12°C° 0.1 mm 3 mps 718 mmHg 85%
    18:00 -12°C° 0.1 mm 2 mps 718 mmHg 89%
    19:00 -11°C° 0.1 mm 1 mps 719 mmHg 92%
    20:00 -12°C° 0.1 mm 1 mps 719 mmHg 92%
    21:00 -12°C° 0.1 mm 1 mps 718 mmHg 93%
    22:00 -13°C° 0.1 mm 1 mps 718 mmHg 93%
    23:00 -13°C° 0 mm 1 mps 718 mmHg 93%

    22 February, Thursday

    Time Temperature Precipitation Wind Pressure Humidity
    00:00 -13°C° 0 mm 1 mps 718 mmHg 94%
    01:00 -14°C° 0 mm 1 mps 718 mmHg 94%
    02:00 -14°C° 0 mm 1 mps 718 mmHg 94%
    03:00 -15°C° 0 mm 1 mps 717 mmHg 95%
    04:00 -15°C° 0 mm 1 mps 717 mmHg 95%
    05:00 -15°C° 0 mm 1 mps 717 mmHg 95%
    06:00 -16°C° 0 mm 1 mps 717 mmHg 95%
    07:00 -16°C° 0 mm 1 mps 717 mmHg 95%
    08:00 -14°C° 0 mm 1 mps 717 mmHg 91%
    09:00 -12°C° 0 mm 1 mps 717 mmHg 88%
    10:00 -10°C° 0 mm 1 mps 717 mmHg 84%
    11:00 -9°C° 0 mm 1 mps 716 mmHg 82%
    12:00 -9°C° 0 mm 2 mps 716 mmHg 79%
    13:00 -8°C° 0 mm 2 mps 716 mmHg 77%
    14:00 -8°C° 0 mm 2 mps 715 mmHg 79%
    15:00 -8°C° 0 mm 1 mps 715 mmHg 81%
    16:00 -8°C° 0 mm 1 mps 715 mmHg 83%
    17:00 -9°C° 0 mm 1 mps 715 mmHg 86%
    18:00 -11°C° 0 mm 1 mps 716 mmHg 88%
    19:00 -13°C° 0 mm 1 mps 716 mmHg 91%
    20:00 -13°C° 0 mm 1 mps 716 mmHg 91%
    21:00 -14°C° 0 mm 1 mps 716 mmHg 91%
    22:00 -15°C° 0 mm 1 mps 716 mmHg 92%
    23:00 -15°C° 0 mm 1 mps 716 mmHg 92%

    23 February, Friday

    Time Temperature Precipitation Wind Pressure Humidity
    00:00 -15°C° 0 mm 1 mps 716 mmHg 92%
    01:00 -15°C° 0 mm 1 mps 716 mmHg 92%
    02:00 -15°C° 0 mm 1 mps 716 mmHg 92%
    03:00 -15°C° 0 mm 1 mps 716 mmHg 93%
    04:00 -16°C° 0 mm 1 mps 716 mmHg 93%
    05:00 -16°C° 0 mm 1 mps 716 mmHg 93%
    06:00 -16°C° 0 mm 1 mps 717 mmHg 93%
    07:00 -16°C° 0 mm 1 mps 717 mmHg 93%
    08:00 -14°C° 0.1 mm 1 mps 717 mmHg 91%
    09:00 -13°C° 0.1 mm 1 mps 717 mmHg 88%
    10:00 -11°C° 0.1 mm 1 mps 717 mmHg 86%
    11:00 -9°C° 0.1 mm 1 mps 717 mmHg 86%
    12:00 -8°C° 0.1 mm 1 mps 717 mmHg 85%
    13:00 -7°C° 0.1 mm 1 mps 717 mmHg 84%
    14:00 -7°C° 0.1 mm 1 mps 717 mmHg 86%
    15:00 -6°C° 0.1 mm 1 mps 717 mmHg 87%
    16:00 -6°C° 0.1 mm 1 mps 717 mmHg 88%
    17:00 -7°C° 0 mm 1 mps 718 mmHg 90%
    18:00 -8°C° 0 mm 1 mps 718 mmHg 92%
    19:00 -9°C° 0 mm 1 mps 719 mmHg 94%
    20:00 -10°C° 0 mm 1 mps 719 mmHg 94%
    21:00 -10°C° 0 mm 1 mps 719 mmHg 94%
    22:00 -11°C° 0 mm 1 mps 719 mmHg 94%
    23:00 -11°C° 0 mm 1 mps 719 mmHg 94%
    Show more